AFL332 UNKL-USSS

Flight info

Callsign AFL332
Flight time N/A
Altitude 34000
Route APRUS2F APRUS B800 ADONI A300 TOKMO G827 KENGA A300 KZ R244 RUBOR T448 SOPUS SOPUS6S
Aircraft MD11/H-SDE1E2E3FGHIJ2J3J4J5M1RWXY/LB1D1

Departure

Time 2026-05-01 13:54
Airport Krasnoyarsk International Airport (UNKL)

Arrival

Time N/A
Airport Koltsovo Airport (USSS)
Time Latitude Longitude Altitude Speed Heading
2026-05-01 13:21 56.18163 92.47106 958 ft 0 kts 22°
2026-05-01 13:45 56.18179 92.47123 954 ft 6 kts 33°
2026-05-01 13:45 56.18195 92.47173 958 ft 0 kts 75°
2026-05-01 13:46 56.18195 92.47174 958 ft 0 kts 75°
2026-05-01 13:46 56.18196 92.47187 958 ft 3 kts 81°
2026-05-01 13:46 56.18192 92.47236 955 ft 6 kts 103°
2026-05-01 13:47 56.18177 92.47322 957 ft 9 kts 111°
2026-05-01 13:47 56.18147 92.47441 956 ft 12 kts 114°
2026-05-01 13:47 56.18110 92.47597 957 ft 15 kts 112°
2026-05-01 13:47 56.18071 92.47762 956 ft 13 kts 113°
2026-05-01 13:48 56.18040 92.47895 956 ft 11 kts 112°
2026-05-01 13:48 56.18004 92.47974 955 ft 6 kts 157°
2026-05-01 13:48 56.17969 92.47969 954 ft 6 kts 197°
2026-05-01 13:48 56.17922 92.47935 956 ft 9 kts 203°
2026-05-01 13:49 56.17858 92.47937 955 ft 9 kts 143°
2026-05-01 13:49 56.17820 92.48053 955 ft 12 kts 116°
2026-05-01 13:49 56.17782 92.48212 956 ft 15 kts 113°
2026-05-01 13:49 56.17736 92.48405 956 ft 18 kts 113°
2026-05-01 13:50 56.17681 92.48630 958 ft 21 kts 114°
2026-05-01 13:50 56.17619 92.48885 955 ft 24 kts 114°
2026-05-01 13:50 56.17551 92.49170 956 ft 26 kts 112°
2026-05-01 13:50 56.17479 92.49479 956 ft 28 kts 113°
2026-05-01 13:51 56.17400 92.49810 957 ft 30 kts 114°
2026-05-01 13:51 56.17316 92.50158 955 ft 30 kts 114°
2026-05-01 13:51 56.17237 92.50487 956 ft 27 kts 112°
2026-05-01 13:51 56.17168 92.50775 959 ft 24 kts 113°
2026-05-01 13:52 56.17108 92.51029 959 ft 21 kts 113°
2026-05-01 13:52 56.17055 92.51250 955 ft 19 kts 113°
2026-05-01 13:52 56.16999 92.51486 956 ft 22 kts 113°
2026-05-01 13:52 56.16936 92.51751 955 ft 24 kts 113°
2026-05-01 13:53 56.16829 92.51986 954 ft 26 kts 150°
2026-05-01 13:53 56.16678 92.51929 959 ft 10 kts 279°
2026-05-01 13:53 56.16701 92.51800 958 ft 16 kts 292°
2026-05-01 13:54 56.16845 92.51204 956 ft 91 kts 293°
2026-05-01 13:54 56.17187 92.49771 955 ft 156 kts 293°
2026-05-01 13:54 56.17660 92.47792 1141 ft 185 kts 293°
2026-05-01 13:54 56.18150 92.45714 1892 ft 183 kts 293°
2026-05-01 13:55 56.18653 92.43595 2639 ft 185 kts 293°
2026-05-01 13:55 56.19160 92.41460 3390 ft 187 kts 293°
2026-05-01 13:55 56.19673 92.39304 4111 ft 190 kts 292°
2026-05-01 13:55 56.20230 92.36967 4404 ft 213 kts 292°
2026-05-01 13:56 56.20836 92.34404 4684 ft 240 kts 292°
2026-05-01 13:56 56.21453 92.31404 4904 ft 270 kts 282°
2026-05-01 13:56 56.21544 92.28033 5758 ft 273 kts 261°
2026-05-01 13:56 56.21041 92.24722 6675 ft 276 kts 251°
2026-05-01 13:57 56.20371 92.21521 7500 ft 279 kts 250°
2026-05-01 13:57 56.19887 92.19328 8097 ft 281 kts 250°
2026-05-01 13:57 56.18912 92.14933 9228 ft 285 kts 250°
2026-05-01 13:57 56.18176 92.11608 10073 ft 288 kts 250°
2026-05-01 13:58 56.17418 92.08169 10382 ft 309 kts 250°
2026-05-01 13:58 56.16608 92.04472 10512 ft 335 kts 250°
2026-05-01 13:58 56.15733 92.00476 10941 ft 349 kts 250°
2026-05-01 13:58 56.14837 91.96403 11706 ft 353 kts 251°
2026-05-01 13:59 56.13929 91.92283 12493 ft 357 kts 251°
2026-05-01 13:59 56.13013 91.88131 13232 ft 361 kts 251°
2026-05-01 13:59 56.12086 91.83931 13962 ft 364 kts 251°
2026-05-01 13:59 56.11146 91.79678 14586 ft 368 kts 252°
2026-05-01 14:00 56.10200 91.75402 15212 ft 371 kts 252°
2026-05-01 14:00 56.09244 91.71097 15858 ft 374 kts 252°
2026-05-01 14:00 56.08279 91.66768 16504 ft 375 kts 252°
2026-05-01 14:00 56.07307 91.62415 17091 ft 378 kts 252°
2026-05-01 14:01 56.06324 91.58034 17627 ft 380 kts 252°
2026-05-01 14:01 56.05329 91.53619 18175 ft 384 kts 252°
2026-05-01 14:01 56.04330 91.49159 18694 ft 387 kts 252°
2026-05-01 14:01 56.03328 91.44673 19140 ft 390 kts 252°
2026-05-01 14:02 56.02321 91.40179 19587 ft 393 kts 252°
2026-05-01 14:02 56.01299 91.35635 20041 ft 396 kts 252°
2026-05-01 14:02 56.00265 91.31055 20484 ft 398 kts 252°
2026-05-01 14:02 55.99346 91.26390 20927 ft 398 kts 259°
2026-05-01 14:03 55.98949 91.21534 21376 ft 394 kts 273°
2026-05-01 14:03 55.99249 91.16696 21810 ft 393 kts 284°
2026-05-01 14:03 55.99940 91.11953 22243 ft 395 kts 288°
2026-05-01 14:03 56.00751 91.07266 22730 ft 397 kts 289°
2026-05-01 14:04 56.01584 91.02524 23207 ft 400 kts 289°
2026-05-01 14:04 56.02399 90.97748 23668 ft 404 kts 288°
2026-05-01 14:04 56.03194 90.92918 24087 ft 406 kts 288°
2026-05-01 14:04 56.03711 90.89698 24385 ft 407 kts 288°
2026-05-01 14:05 56.04742 90.83153 25007 ft 410 kts 287°
2026-05-01 14:05 56.05505 90.78233 25490 ft 412 kts 287°
2026-05-01 14:05 56.06269 90.73280 25954 ft 414 kts 287°
2026-05-01 14:05 56.07033 90.68302 26404 ft 416 kts 287°
2026-05-01 14:06 56.07801 90.63304 26866 ft 418 kts 287°
2026-05-01 14:06 56.08569 90.58275 27283 ft 420 kts 287°
2026-05-01 14:06 56.09339 90.53222 27718 ft 421 kts 287°
2026-05-01 14:06 56.10110 90.48146 28158 ft 424 kts 287°
2026-05-01 14:07 56.10873 90.43110 28569 ft 426 kts 287°
2026-05-01 14:07 56.11647 90.37980 28983 ft 428 kts 287°
2026-05-01 14:07 56.12423 90.32817 29390 ft 430 kts 287°
2026-05-01 14:08 56.13981 90.22407 30241 ft 432 kts 287°
2026-05-01 14:08 56.14755 90.17210 30679 ft 431 kts 287°
2026-05-01 14:08 56.15525 90.12020 31132 ft 429 kts 287°
2026-05-01 14:08 56.16291 90.06858 31580 ft 427 kts 287°
2026-05-01 14:09 56.17047 90.01743 32012 ft 425 kts 287°
2026-05-01 14:09 56.17547 89.98344 32282 ft 424 kts 287°
2026-05-01 14:09 56.18547 89.91521 32836 ft 422 kts 287°
2026-05-01 14:09 56.19049 89.88084 33104 ft 421 kts 287°
2026-05-01 14:10 56.19779 89.83078 33499 ft 419 kts 287°
2026-05-01 14:10 56.20511 89.78040 33904 ft 417 kts 287°
2026-05-01 14:10 56.21231 89.72985 34045 ft 418 kts 286°
2026-05-01 14:11 56.22641 89.62817 34091 ft 420 kts 286°
2026-05-01 14:11 56.24792 89.47561 34094 ft 420 kts 286°
2026-05-01 14:12 56.26232 89.37389 34094 ft 420 kts 286°
2026-05-01 14:12 56.27668 89.27214 34073 ft 420 kts 286°
2026-05-01 14:13 56.29097 89.17035 34066 ft 420 kts 286°
2026-05-01 14:13 56.30515 89.06835 34086 ft 420 kts 286°
2026-05-01 14:14 56.31919 88.96646 34083 ft 419 kts 286°
2026-05-01 14:14 56.33059 88.86363 34077 ft 420 kts 278°
2026-05-01 14:15 56.33412 88.75920 34072 ft 420 kts 275°
2026-05-01 14:15 56.33635 88.65416 34074 ft 420 kts 275°
2026-05-01 14:16 56.33889 88.54904 34073 ft 420 kts 276°
2026-05-01 14:16 56.34161 88.44401 34078 ft 420 kts 276°
2026-05-01 14:17 56.34433 88.33920 34060 ft 420 kts 276°
2026-05-01 14:17 56.34697 88.23400 34073 ft 419 kts 275°
2026-05-01 14:18 56.34953 88.12920 34070 ft 418 kts 275°
2026-05-01 14:18 56.35157 88.04205 34069 ft 418 kts 275°
2026-05-01 14:19 56.35434 87.91952 34054 ft 419 kts 275°
2026-05-01 14:19 56.35663 87.81464 34066 ft 419 kts 275°
2026-05-01 14:20 56.35987 87.65729 34059 ft 419 kts 274°
2026-05-01 14:21 56.36192 87.55242 34064 ft 419 kts 274°
2026-05-01 14:21 56.36387 87.44748 34053 ft 419 kts 274°
2026-05-01 14:22 56.36600 87.29006 34056 ft 419 kts 274°
2026-05-01 14:22 56.36740 87.18502 34051 ft 419 kts 274°
2026-05-01 14:23 56.36898 87.07999 34047 ft 419 kts 274°
2026-05-01 14:23 56.37053 86.97475 34046 ft 420 kts 274°
2026-05-01 14:24 56.37201 86.86951 34045 ft 420 kts 274°
2026-05-01 14:24 56.37342 86.76440 34040 ft 420 kts 273°
2026-05-01 14:25 56.37471 86.65976 34039 ft 420 kts 273°
2026-05-01 14:25 56.37593 86.55433 34040 ft 420 kts 273°
2026-05-01 14:26 56.37756 86.39597 34036 ft 421 kts 273°
2026-05-01 14:27 56.37855 86.29019 34031 ft 422 kts 272°
2026-05-01 14:27 56.37944 86.18442 34031 ft 422 kts 272°
2026-05-01 14:28 56.38063 86.02573 34026 ft 422 kts 272°
2026-05-01 14:28 56.38097 85.91983 34025 ft 423 kts 271°
2026-05-01 14:29 56.38145 85.81374 34021 ft 423 kts 272°
2026-05-01 14:30 56.38271 85.60144 34015 ft 423 kts 272°
2026-05-01 14:31 56.38349 85.44218 34015 ft 423 kts 272°
2026-05-01 14:31 56.38390 85.33588 34008 ft 425 kts 271°
2026-05-01 14:32 56.38422 85.22951 34020 ft 425 kts 271°
2026-05-01 14:32 56.38432 85.12280 34020 ft 425 kts 271°
2026-05-01 14:33 56.38450 85.01684 34017 ft 425 kts 271°
2026-05-01 14:33 56.38472 84.91019 34014 ft 425 kts 271°
2026-05-01 14:34 56.38489 84.80361 34008 ft 425 kts 270°
2026-05-01 14:34 56.38499 84.69684 34001 ft 426 kts 270°
2026-05-01 14:35 56.38499 84.59002 33996 ft 426 kts 270°
2026-05-01 14:35 56.38490 84.48317 33993 ft 426 kts 270°
2026-05-01 14:36 56.38468 84.37642 33987 ft 426 kts 270°
2026-05-01 14:36 56.38439 84.26955 33986 ft 426 kts 270°
2026-05-01 14:37 56.38402 84.16256 33981 ft 427 kts 269°
2026-05-01 14:37 56.38354 84.05553 33977 ft 427 kts 269°
2026-05-01 14:38 56.38298 83.94838 33977 ft 427 kts 269°
2026-05-01 14:38 56.38233 83.84124 33977 ft 427 kts 269°
2026-05-01 14:39 56.38157 83.73407 33969 ft 427 kts 269°
2026-05-01 14:39 56.38019 83.62690 33972 ft 427 kts 269°
2026-05-01 14:40 56.37886 83.51972 33971 ft 427 kts 269°
2026-05-01 14:40 56.37771 83.41254 33971 ft 427 kts 269°
2026-05-01 14:41 56.37659 83.30536 33966 ft 427 kts 269°
2026-05-01 14:41 56.37529 83.19823 33966 ft 427 kts 269°
2026-05-01 14:42 56.37398 83.09102 33962 ft 427 kts 269°
2026-05-01 14:42 56.37269 82.98449 33960 ft 428 kts 268°
2026-05-01 14:43 56.37129 82.87710 33963 ft 429 kts 268°
2026-05-01 14:43 56.36980 82.76954 33955 ft 428 kts 268°
2026-05-01 14:44 56.36822 82.66218 33955 ft 429 kts 268°
2026-05-01 14:44 56.36568 82.50097 33949 ft 429 kts 267°
2026-05-01 14:45 56.36290 82.33904 33947 ft 431 kts 267°
2026-05-01 14:46 56.36093 82.23096 33942 ft 431 kts 267°
2026-05-01 14:46 56.35731 82.06892 33939 ft 431 kts 266°
2026-05-01 14:47 56.35481 81.96108 33939 ft 431 kts 266°
2026-05-01 14:48 56.35114 81.79880 33931 ft 432 kts 266°
2026-05-01 14:48 56.34729 81.63670 33919 ft 433 kts 265°
2026-05-01 14:49 56.34166 81.41871 33913 ft 441 kts 265°
2026-05-01 14:50 56.33576 81.19631 33905 ft 450 kts 265°
2026-05-01 14:51 56.33099 81.02702 33905 ft 451 kts 265°
2026-05-01 14:52 56.32596 80.85770 33898 ft 451 kts 265°
2026-05-01 14:53 56.32131 80.68811 33891 ft 454 kts 266°
2026-05-01 14:53 56.32209 80.57410 33890 ft 455 kts 269°
2026-05-01 14:54 56.32415 80.46015 33883 ft 455 kts 269°
2026-05-01 14:54 56.32611 80.34606 33883 ft 455 kts 269°
2026-05-01 14:55 56.32782 80.23213 33869 ft 455 kts 269°
2026-05-01 14:55 56.32937 80.11781 33872 ft 458 kts 268°
2026-05-01 14:56 56.33081 80.00311 33860 ft 458 kts 268°
2026-05-01 14:56 56.33212 79.88841 33860 ft 458 kts 268°
2026-05-01 14:57 56.33333 79.77365 33862 ft 458 kts 268°
2026-05-01 14:57 56.33499 79.60153 33860 ft 458 kts 268°
2026-05-01 14:58 56.33594 79.48739 33856 ft 459 kts 268°
2026-05-01 14:58 56.33678 79.37238 33844 ft 459 kts 268°
2026-05-01 14:59 56.33743 79.27605 33844 ft 459 kts 268°
2026-05-01 14:59 56.33780 79.16102 33838 ft 459 kts 267°
2026-05-01 15:00 56.33790 78.98854 33841 ft 460 kts 267°
2026-05-01 15:01 56.33821 78.87298 33827 ft 461 kts 267°
2026-05-01 15:01 56.33852 78.75755 33824 ft 460 kts 267°
2026-05-01 15:02 56.33871 78.64242 33811 ft 460 kts 266°
2026-05-01 15:02 56.33880 78.52716 33812 ft 460 kts 266°
2026-05-01 15:03 56.33874 78.41195 33814 ft 460 kts 266°
2026-05-01 15:03 56.34240 78.29634 33800 ft 465 kts 273°
2026-05-01 15:04 56.35130 78.18167 33805 ft 465 kts 275°
2026-05-01 15:04 56.36090 78.06618 33808 ft 465 kts 274°
2026-05-01 15:05 56.37003 77.95064 33792 ft 465 kts 274°
2026-05-01 15:05 56.37881 77.83506 33790 ft 465 kts 274°
2026-05-01 15:06 56.38748 77.71936 33787 ft 465 kts 274°
2026-05-01 15:06 56.39607 77.60364 33783 ft 466 kts 274°
2026-05-01 15:07 56.40452 77.48789 33790 ft 465 kts 273°
2026-05-01 15:07 56.41289 77.37207 33780 ft 465 kts 274°
2026-05-01 15:08 56.42136 77.25632 33777 ft 465 kts 274°
2026-05-01 15:08 56.42985 77.14050 33766 ft 465 kts 273°
2026-05-01 15:09 56.43827 77.02449 33775 ft 464 kts 273°
2026-05-01 15:09 56.44649 76.90909 33758 ft 462 kts 273°
2026-05-01 15:10 56.45447 76.79392 33755 ft 461 kts 273°
2026-05-01 15:10 56.46670 76.62115 33779 ft 462 kts 273°
2026-05-01 15:11 56.47847 76.44824 33738 ft 462 kts 272°
2026-05-01 15:12 56.48614 76.33263 33740 ft 462 kts 272°
2026-05-01 15:12 56.49747 76.15941 33725 ft 462 kts 272°
2026-05-01 15:14 56.51503 75.87013 33713 ft 464 kts 271°
2026-05-01 15:14 56.52552 75.69593 33704 ft 464 kts 271°
2026-05-01 15:15 56.53957 75.46361 33695 ft 464 kts 271°
2026-05-01 15:16 56.55312 75.22956 33688 ft 470 kts 270°
2026-05-01 15:18 56.56963 74.93517 33670 ft 470 kts 270°
2026-05-01 15:19 56.58232 74.69927 33659 ft 468 kts 269°
2026-05-01 15:19 56.59142 74.52292 33647 ft 468 kts 268°
2026-05-01 15:20 56.59949 74.34746 33644 ft 467 kts 268°
2026-05-01 15:21 56.60515 74.22994 33631 ft 468 kts 269°
2026-05-01 15:21 56.61086 74.11217 33641 ft 468 kts 268°
2026-05-01 15:22 56.61925 73.93520 33640 ft 469 kts 268°
2026-05-01 15:22 56.62470 73.81714 33631 ft 469 kts 268°
2026-05-01 15:23 56.63005 73.69924 33626 ft 463 kts 268°
2026-05-01 15:23 56.63259 73.64177 33621 ft 452 kts 267°
2026-05-01 15:23 56.63501 73.58484 33624 ft 451 kts 267°
2026-05-01 15:24 56.63971 73.47123 33642 ft 454 kts 266°
2026-05-01 15:24 56.64445 73.35668 33636 ft 455 kts 266°
2026-05-01 15:25 56.64916 73.24192 33638 ft 455 kts 266°
2026-05-01 15:25 56.65377 73.12715 33637 ft 455 kts 266°
2026-05-01 15:26 56.65827 73.01254 33642 ft 455 kts 266°
2026-05-01 15:26 56.66267 72.89775 33683 ft 455 kts 265°
2026-05-01 15:27 56.66686 72.78339 33643 ft 452 kts 265°
2026-05-01 15:28 56.67261 72.61207 33636 ft 453 kts 265°